Stündliche Wetter Celso Ramos

Heute, 23 Januar, Samstag

Zeit Temperatur Niederschläge Wind Luftdruck Luftfeuchtigkeit
00:00 +19°C° 0 mm 2 m/S 703 mmHg 91%
01:00 +19°C° 0 mm 2 m/S 702 mmHg 91%
02:00 +18°C° 0 mm 2 m/S 702 mmHg 92%
03:00 +18°C° 0 mm 2 m/S 701 mmHg 92%
04:00 +18°C° 0 mm 2 m/S 701 mmHg 92%
05:00 +18°C° 0 mm 2 m/S 702 mmHg 92%
06:00 +17°C° 0 mm 2 m/S 702 mmHg 92%
07:00 +19°C° 0 mm 2 m/S 702 mmHg 86%
08:00 +21°C° 0 mm 2 m/S 703 mmHg 80%
09:00 +23°C° 0 mm 2 m/S 703 mmHg 74%
10:00 +24°C° 0.5 mm 2 m/S 703 mmHg 76%
11:00 +25°C° 0.5 mm 2 m/S 703 mmHg 78%
12:00 +26°C° 0.5 mm 2 m/S 703 mmHg 80%
13:00 +26°C° 1.3 mm 2 m/S 702 mmHg 81%
14:00 +26°C° 1.3 mm 2 m/S 701 mmHg 83%
15:00 +26°C° 1.3 mm 1 m/S 701 mmHg 84%
16:00 +26°C° 1 mm 1 m/S 701 mmHg 86%
17:00 +26°C° 1 mm 1 m/S 700 mmHg 88%
18:00 +25°C° 1 mm 1 m/S 700 mmHg 90%
19:00 +24°C° 0.3 mm 1 m/S 700 mmHg 92%
20:00 +21°C° 0.3 mm 2 m/S 700 mmHg 94%
21:00 +19°C° 0.3 mm 2 m/S 701 mmHg 96%
22:00 +19°C° 0 mm 2 m/S 701 mmHg 97%
23:00 +19°C° 0 mm 2 m/S 701 mmHg 97%

Morgen, 24 Januar, Sonntag

Zeit Temperatur Niederschläge Wind Luftdruck Luftfeuchtigkeit
00:00 +19°C° 0 mm 2 m/S 701 mmHg 97%
01:00 +18°C° 0 mm 2 m/S 700 mmHg 97%
02:00 +18°C° 0 mm 2 m/S 700 mmHg 97%
03:00 +18°C° 0 mm 2 m/S 699 mmHg 96%
04:00 +17°C° 0 mm 2 m/S 699 mmHg 97%
05:00 +17°C° 0 mm 2 m/S 699 mmHg 97%
06:00 +18°C° 0 mm 1 m/S 699 mmHg 97%
07:00 +19°C° 0 mm 2 m/S 700 mmHg 91%
08:00 +21°C° 0 mm 2 m/S 700 mmHg 84%
09:00 +24°C° 0 mm 2 m/S 701 mmHg 78%
10:00 +25°C° 1.3 mm 2 m/S 701 mmHg 80%
11:00 +25°C° 1.3 mm 2 m/S 701 mmHg 83%
12:00 +26°C° 1.3 mm 2 m/S 700 mmHg 85%
13:00 +26°C° 1.6 mm 2 m/S 700 mmHg 84%
14:00 +27°C° 1.6 mm 1 m/S 699 mmHg 84%
15:00 +27°C° 1.6 mm 1 m/S 698 mmHg 83%
16:00 +26°C° 1.6 mm 1 m/S 698 mmHg 87%
17:00 +25°C° 1.6 mm 1 m/S 698 mmHg 90%
18:00 +24°C° 1.6 mm 1 m/S 698 mmHg 94%
19:00 +23°C° 0.3 mm 2 m/S 698 mmHg 94%
20:00 +21°C° 0.3 mm 2 m/S 698 mmHg 95%
21:00 +20°C° 0.3 mm 2 m/S 698 mmHg 96%
22:00 +19°C° 0.4 mm 2 m/S 698 mmHg 96%
23:00 +19°C° 0.4 mm 2 m/S 698 mmHg 97%

übermorgen, 25 Januar, Montag

Zeit Temperatur Niederschläge Wind Luftdruck Luftfeuchtigkeit
00:00 +19°C° 0.4 mm 2 m/S 698 mmHg 98%
01:00 +19°C° 0 mm 2 m/S 698 mmHg 97%
02:00 +19°C° 0 mm 2 m/S 698 mmHg 97%
03:00 +19°C° 0 mm 2 m/S 697 mmHg 97%
04:00 +19°C° 0.6 mm 2 m/S 697 mmHg 97%
05:00 +20°C° 0.6 mm 1 m/S 697 mmHg 98%
06:00 +20°C° 0.6 mm 1 m/S 698 mmHg 98%
07:00 +20°C° 0.9 mm 1 m/S 698 mmHg 97%
08:00 +21°C° 0.9 mm 1 m/S 698 mmHg 97%
09:00 +21°C° 0.9 mm 1 m/S 699 mmHg 96%
10:00 +22°C° 1.5 mm 1 m/S 699 mmHg 96%
11:00 +22°C° 1.5 mm 1 m/S 699 mmHg 96%
12:00 +20°C° 1.5 mm 0 m/S 699 mmHg 97%
13:00 +22°C° 1.3 mm 1 m/S 698 mmHg 97%
14:00 +21°C° 1.3 mm 1 m/S 698 mmHg 98%
15:00 +21°C° 1.3 mm 1 m/S 697 mmHg 98%
16:00 +21°C° 0.2 mm 1 m/S 697 mmHg 97%
17:00 +22°C° 0.2 mm 1 m/S 697 mmHg 97%
18:00 +21°C° 0.2 mm 2 m/S 697 mmHg 96%
19:00 +20°C° 0.1 mm 2 m/S 697 mmHg 96%
20:00 +20°C° 0.1 mm 2 m/S 697 mmHg 97%
21:00 +20°C° 0.1 mm 2 m/S 697 mmHg 97%
22:00 +20°C° 0 mm 2 m/S 697 mmHg 97%
23:00 +20°C° 0 mm 2 m/S 697 mmHg 97%

26 Januar, Dienstag

Zeit Temperatur Niederschläge Wind Luftdruck Luftfeuchtigkeit
00:00 +20°C° 0 mm 2 m/S 698 mmHg 97%
01:00 +19°C° 0 mm 2 m/S 697 mmHg 97%
02:00 +20°C° 0 mm 1 m/S 697 mmHg 97%
03:00 +20°C° 0 mm 1 m/S 696 mmHg 97%
04:00 +20°C° 0 mm 1 m/S 696 mmHg 97%
05:00 +20°C° 0 mm 1 m/S 696 mmHg 98%
06:00 +20°C° 0 mm 1 m/S 696 mmHg 98%
07:00 +21°C° 0 mm 1 m/S 697 mmHg 93%
08:00 +23°C° 0 mm 1 m/S 698 mmHg 88%
09:00 +24°C° 0 mm 1 m/S 698 mmHg 83%
10:00 +24°C° 0.2 mm 1 m/S 698 mmHg 84%
11:00 +25°C° 0.2 mm 1 m/S 698 mmHg 84%
12:00 +25°C° 0.2 mm 1 m/S 698 mmHg 85%
13:00 +26°C° 0.6 mm 1 m/S 697 mmHg 82%
14:00 +27°C° 0.6 mm 2 m/S 697 mmHg 79%
15:00 +28°C° 0.6 mm 2 m/S 697 mmHg 77%
16:00 +28°C° 1.4 mm 2 m/S 697 mmHg 82%
17:00 +27°C° 1.4 mm 1 m/S 697 mmHg 88%
18:00 +26°C° 1.4 mm 1 m/S 696 mmHg 94%
19:00 +25°C° 0.6 mm 1 m/S 696 mmHg 94%
20:00 +22°C° 0.6 mm 0 m/S 697 mmHg 95%
21:00 +21°C° 0.6 mm 0 m/S 697 mmHg 95%
22:00 +22°C° 0 mm 1 m/S 697 mmHg 96%
23:00 +22°C° 0 mm 1 m/S 697 mmHg 96%

27 Januar, Mittwoch

Zeit Temperatur Niederschläge Wind Luftdruck Luftfeuchtigkeit
00:00 +22°C° 0 mm 1 m/S 697 mmHg 97%
01:00 +21°C° 0 mm 1 m/S 696 mmHg 97%
02:00 +21°C° 0 mm 1 m/S 696 mmHg 97%
03:00 +21°C° 0 mm 1 m/S 695 mmHg 97%
04:00 +20°C° 0 mm 1 m/S 695 mmHg 97%
05:00 +20°C° 0 mm 1 m/S 695 mmHg 97%
06:00 +20°C° 0 mm 1 m/S 696 mmHg 97%
07:00 +22°C° 0 mm 1 m/S 696 mmHg 90%
08:00 +24°C° 0 mm 2 m/S 697 mmHg 83%
09:00 +26°C° 0 mm 3 m/S 697 mmHg 75%
10:00 +28°C° 0.1 mm 3 m/S 697 mmHg 69%
11:00 +29°C° 0.1 mm 4 m/S 697 mmHg 64%
12:00 +32°C° 0.1 mm 4 m/S 697 mmHg 58%
13:00 +30°C° 0.9 mm 4 m/S 696 mmHg 69%
14:00 +28°C° 0.9 mm 4 m/S 696 mmHg 80%
15:00 +27°C° 0.9 mm 4 m/S 696 mmHg 91%
16:00 +26°C° 0.7 mm 3 m/S 695 mmHg 93%
17:00 +25°C° 0.7 mm 2 m/S 695 mmHg 94%
18:00 +24°C° 0.7 mm 1 m/S 695 mmHg 96%
19:00 +24°C° 0.3 mm 1 m/S 695 mmHg 96%
20:00 +23°C° 0.3 mm 1 m/S 695 mmHg 97%
21:00 +22°C° 0.3 mm 1 m/S 696 mmHg 98%
22:00 +22°C° 0 mm 1 m/S 696 mmHg 98%
23:00 +22°C° 0 mm 1 m/S 696 mmHg 98%

28 Januar, Donnerstag

Zeit Temperatur Niederschläge Wind Luftdruck Luftfeuchtigkeit
00:00 +22°C° 0 mm 1 m/S 696 mmHg 98%
01:00 +22°C° 0 mm 1 m/S 695 mmHg 98%
02:00 +21°C° 0 mm 1 m/S 695 mmHg 98%
03:00 +21°C° 0 mm 1 m/S 695 mmHg 98%
04:00 +21°C° 0.1 mm 1 m/S 695 mmHg 98%
05:00 +19°C° 0.1 mm 0 m/S 695 mmHg 98%
06:00 +19°C° 0.1 mm 0 m/S 695 mmHg 98%
07:00 +21°C° 1.1 mm 1 m/S 695 mmHg 97%
08:00 +22°C° 1.1 mm 1 m/S 696 mmHg 96%
09:00 +23°C° 1.1 mm 2 m/S 697 mmHg 95%
10:00 +24°C° 1 mm 2 m/S 696 mmHg 95%
11:00 +25°C° 1 mm 2 m/S 696 mmHg 94%
12:00 +26°C° 1 mm 2 m/S 696 mmHg 94%
13:00 +26°C° 1.4 mm 2 m/S 696 mmHg 93%
14:00 +26°C° 1.4 mm 2 m/S 696 mmHg 93%
15:00 +26°C° 1.4 mm 2 m/S 695 mmHg 93%
Mehr zeigen

Wir brauchen deine Erlaubnis

Meteoprog und unser Service Anbieter werden persönliche Daten aufbewahren, so wie Cookies, Geräte Bezeichnung oder ähnliche Technologien von deinem Gerät und Prozess, so wie Persönliche Daten Inhalte und Werbungen, genauso wie social Media und den Verkehr zu analysieren.

  • Aufbewahrung und/oder Zugang zu deiner Geräte Informationen.

    Cookies, Geräte Bezeichnung oder andere Informationen, können aufbewahrt oder Zugang zu deinem Gerät erhalten, für den Grund, der oben angegeben wird.

  • Personalisierte Werbung und Inhalte, Messungen, Einblick in das Publikum und Produkt Entwicklung.

    Werbungen und Inhalte können personalisiert werden, basierend auf ein Profil. Mehr Daten können besser personalisierte Werbungen und Inhalte hinzufügen. Werbung und Inhalte können gezeigt und gemessen werden. Einblicke über das Publikum, welche die Werbung gesehen haben und den Inhalt, können abgeleitet werden. So wie Daten können genutzt werden, um es zu verbessern oder die Benutzer Erfahrung zu verbessern das System und die Software.

Wenn du “Ich stimme zu” klickst, erlaubst du uns, die Cookies zu benutzen die Geräte Bezeichnung, den Web oder ähnliche Technologien zu benutzen. Deine Settings, können in deinem Gerät bei deinem Browser geändert werden.

Für den bestimmten Zweck, berechtigten Interessen beruhen darauf, mehr als auf den Inhalt. Du kannst mehr darüber in unseren Privaten und Cookie Politik lesen.